This demonstration page uses our WeatherBlox Daily Observations layout. Learn more.

Left ArrowRight Arrow

Hourly Observations for December 5, 2019

Temp ( °F °C ) Dew Point ( °F °C ) Humidity (%) Winds ( mph kmh ) Pressure ( in mb ) Visibility ( mi km ) Precip ( " mm )
12:52 am 00:52 Clear 31 -0.6 29 -1.7 92 92 SE 3 6 29.94 1014 10 16 0.00 0.00
1:52 am 01:52 Clear 32 0 30 -1.1 92 92 Calm 29.93 1014 10 16 0.00 0.00
2:52 am 02:52 Clear 30 -1.1 27 -2.8 88 88 Calm 29.93 1014 10 16 0.00 0.00
3:52 am 03:52 Clear 30 -1.1 29 -1.7 96 96 SSE 6 9 29.92 1013 10 16 0.00 0.00
4:52 am 04:52 Clear 29 -1.7 27 -2.8 92 92 SSE 9 15 29.91 1013 10 16 0.00 0.00
5:52 am 05:52 Clear 32 0 29 -1.7 88 88 SSE 8 13 29.91 1013 10 16 0.00 0.00
6:52 am 06:52 Clear 29 -1.7 28 -2.2 96 96 SE 9 15 29.91 1013 10 16 0.00 0.00
7:52 am 07:52 Mostly Sunny 30 -1.1 28 -2.2 92 92 SE 8 13 29.92 1013 10 16 0.00 0.00
8:52 am 08:52 Partly Cloudy 33 0.6 31 -0.6 92 92 SSE 7 11 29.92 1013 10 16 0.00 0.00
9:52 am 09:52 Partly Cloudy 39 3.9 34 1.1 82 82 SSE 7 11 29.93 1013 10 16 0.00 0.00
10:52 am 10:52 Partly Cloudy 43 6.1 34 1.1 71 71 SSE 6 9 29.93 1014 10 16 0.00 0.00
11:52 am 11:52 Partly Cloudy 47 8.3 35 1.7 63 63 VRB 5 7 29.91 1013 10 16 0.00 0.00
12:52 pm 12:52 Partly Cloudy 52 11.1 36 2.2 55 55 SE 7 11 29.88 1012 10 16 0.00 0.00
1:52 pm 13:52 Mostly Cloudy 55 12.8 35 1.7 47 47 S 6 9 29.87 1011 10 16 0.00 0.00
2:52 pm 14:52 Mostly Cloudy 56 13.3 36 2.2 47 47 SE 7 11 29.87 1011 10 16 0.00 0.00
3:52 pm 15:52 Mostly Cloudy 55 12.8 36 2.2 49 49 Calm 29.90 1012 10 16 0.00 0.00
4:52 pm 16:52 Cloudy 48 8.9 40 4.4 74 74 N 8 13 29.93 1014 10 16 0.00 0.00
5:52 pm 17:52 Cloudy 42 5.6 38 3.3 85 85 NNW 8 13 29.97 1015 10 16 0.00 0.00
6:52 pm 18:52 Mostly Cloudy 43 6.1 38 3.3 82 82 N 12 19 30.02 1017 10 16 0.00 0.00
7:52 pm 19:52 Mostly Cloudy 40 4.4 34 1.1 79 79 N 16 26 30.05 1018 10 16 0.00 0.00
8:52 pm 20:52 Mostly Cloudy 38 3.3 32 0 79 79 NNW 22 35 30.09 1019 10 16 0.00 0.00
9:52 pm 21:52 Mostly Cloudy 36 2.2 32 0 86 86 NNW 22 35 30.13 1020 10 16 0.00 0.00
10:04 pm 22:04 Cloudy 36 2.2 31 -0.6 82 82 NNW 21 33 30.16 1021 10 16 0.00 0.00
10:52 pm 22:52 Cloudy 35 1.7 30 -1.1 82 82 N 18 30 30.18 1022 10 16 0.00 0.00
11:52 pm 23:52 Cloudy 33 0.6 29 -1.7 85 85 NNW 20 31 30.24 1024 10 16 0.00 0.00

Powered by AerisWeather